Погода в Голой Пристани

Украина / Херсонская область     46°32′00″N   32°31′57″E
темп.,
°C
ветер,
м/с
пор.,
м/с
влажн.,
%
обл.,
%
осадки,
мм/ч
давл.,
гПа
погр.,
м
13 мая, чт
чт1300:00+9ссв11722 0.0 101214
03:00+8всв22764 0.0 101214
06:00+8в3377100 0.0 101238
09:00+14вюв455170 0.0 1012608
12:00+19юв4541100 0.0 10111040
15:00+21ююв4540100 0.0 10111412
18:00+21ююз344593 0.0 10101115
21:00+16юв226385 0.0 101056
14 мая, пт
пт1400:00+12юв337892 0.0 100942
03:00+12юз22790 0.0 100919
06:00+11ююв3581100 0.0 1009107
09:00+17ю5761100 0.0 1009574
12:00+21ююз685277 0.0 1009864
15:00+21юз78535 0.0 1009954
18:00+20юз675591 0.0 1010659
21:00+15ю477714 0.0 1011157
15 мая, сб
сб1500:00+14ююз4108310 0.0 1011182
03:00+13ююз510895 0.0 1012194
06:00+13ююз38860 0.0 1012149
09:00+20юз565562 0.0 1013591
12:00+23юз5644100 0.0 10131420
15:00+23юз554598 0.0 10131258
18:00+22юз2244100 0.0 10121046
21:00+17юз226355 0.0 101214
16 мая, вс
вс1600:00+15с2267100 0.0 101212
03:00+15св337390 0.0 101240
06:00+14св367293 0.0 101198
09:00+21всв5754100 0.0 1010476
12:00+26всв56367 0.0 10091734
15:00+27в3433100 0.0 10072370
18:00+26ссв2443100 0.0 1006186
21:00+22ссв3668100 0.7 1005115
17 мая, пн
пн1700:00+19всв2286100 2.8 100430
03:00+18ююз2386100 3.1 100371
06:00+17сз3694100 0.1 1002201
09:00+20сз458097 0.2 1003443
12:00+23з556327 1.8 10041079
15:00+23зюз78537 1.8 10051098
18:00+22юз675194 0.0 1006653
21:00+17ююз48785 0.0 1008188